Wind_Speed
9 8 6 4 2 1 3 2 1 1 2 1 2 1 1 2 1 1 3 1 0 1 2 4 8 7 3 4 6 4 3 3 3 3 2 1 13 22 19 21 24 22 22 20 19 17 14 14 13 13 11 11 12 12 11 12 13 14 14 13 14 15 15 15 14 15 14 15 15 15 15 16 16 16 15 15 15 14 14 14 13 12 12 11 11 11 11 11 11 10 10 10 11 11 11 11 10
9 8 6 4 2 1 1 2 2 2 3 2 2 1 2 2 1 1 3 3 2 1 4 6 7 5 4 6 7 4 3 3 2 2 2 10 19 16 18 24 24 22 22 20 20 18 16 15 14 14 12 11 12 12 12 13 13 14 14 13 14 14 14 15 14 14 14 14 15 15 16 16 17 17 16 15 15 15 15 14 14 13 12 11 11 10 10 10 10 10 9 9 9 10 10 10 10
8 7 6 5 2 2 1 2 1 1 3 2 2 3 2 3 2 4 5 5 3 3 7 7 6 3 4 5 3 2 2 3 4 4 6 15 15 13 21 24 22 22 21 20 20 20 17 15 15 15 14 12 12 13 12 12 13 13 14 14 14 13 14 14 14 13 14 14 15 16 17 17 18 17 16 15 14 14 14 14 14 13 12 11 11 11 11 11 10 10 10 9 9 8 8 8 8
6 5 5 4 2 2 2 2 2 3 3 2 0 2 1 1 4 5 4 2 2 6 7 6 4 2 3 4 1 2 2 2 5 4 7 12 11 17 24 22 21 21 21 20 20 21 19 17 17 17 16 15 14 14 12 12 13 12 12 13 13 13 14 13 13 13 13 14 15 16 16 16 16 15 14 13 13 14 14 14 13 13 12 11 11 10 10 11 10 10 10 10 9 8 8 7 7
4 4 5 3 1 0 1 1 1 3 2 3 2 2 2 3 5 3 3 3 1 4 5 4 3 2 4 4 1 2 2 4 5 4 8 12 14 22 24 22 22 20 20 20 21 21 19 19 18 18 18 17 16 15 13 12 12 11 10 11 11 12 13 13 12 13 13 14 15 15 15 15 14 13 12 12 13 14 14 13 12 13 12 11 11 10 10 10 10 9 9 9 9 8 8 7 6
4 3 4 2 1 1 1 2 2 2 1 2 2 3 3 3 4 2 2 3 2 4 4 3 4 4 4 3 3 2 1 4 5 6 10 16 20 23 23 22 22 20 21 20 21 21 19 19 18 18 18 17 16 15 14 12 11 10 9 10 10 11 12 12 13 13 14 14 15 15 14 14 12 12 12 12 12 12 13 12 11 11 11 10 10 10 9 9 9 8 8 8 7 7 7 6 5
4 2 1 0 0 1 2 2 2 1 1 1 1 4 4 4 3 0 1 1 3 4 4 3 5 6 3 1 2 4 2 6 7 9 13 20 24 23 23 23 22 22 21 20 21 21 19 18 18 17 17 17 16 14 14 12 12 11 9 10 10 11 11 11 13 14 15 15 14 14 13 12 12 11 11 11 11 11 11 11 10 10 10 10 9 9 9 9 8 7 7 7 6 6 5 5 4
3 1 1 2 1 2 3 2 1 1 1 2 2 4 3 3 2 1 1 0 1 2 4 4 4 5 2 2 3 5 6 9 11 13 18 24 25 23 24 24 23 21 20 21 20 20 19 18 17 16 16 17 15 14 14 13 13 12 10 10 11 11 11 11 13 14 14 14 13 12 12 11 11 11 11 11 11 10 10 10 9 9 9 9 8 8 8 8 7 7 7 6 6 5 4 4 3
1 0 1 2 1 2 2 1 1 1 2 2 2 3 3 3 1 2 1 2 1 3 3 2 2 4 3 5 5 3 7 13 16 18 22 24 24 23 24 24 22 20 21 21 20 20 20 18 17 16 15 16 15 14 13 13 13 13 11 10 11 11 11 11 12 13 12 12 12 11 11 11 11 11 10 11 10 10 10 9 9 8 8 8 7 8 8 7 7 7 7 6 5 4 4 3 3
1 2 1 1 1 2 2 0 0 1 2 2 3 4 4 3 2 1 1 0 1 3 3 4 6 5 5 5 4 2 8 18 21 21 23 24 23 24 24 24 22 21 21 20 19 19 20 19 17 17 16 16 17 16 14 13 12 13 12 11 11 11 11 11 11 12 12 12 11 11 10 11 11 10 10 10 10 10 9 9 8 8 7 7 7 7 7 7 7 7 7 5 4 4 3 3 2
1 2 2 2 3 1 1 1 0 2 3 2 3 3 3 3 2 0 3 3 2 4 3 5 6 6 6 4 2 5 13 19 22 22 22 23 22 23 23 23 22 21 21 19 18 18 19 18 16 17 17 17 17 17 16 15 14 14 13 12 11 11 11 11 12 12 12 12 11 11 10 11 11 10 10 10 10 10 9 9 8 7 6 7 7 8 7 7 6 6 6 5 3 2 2 2 2
2 3 3 2 1 1 2 1 1 3 3 2 2 2 3 3 1 2 5 4 2 4 2 2 5 4 5 2 2 8 14 16 19 22 22 22 21 22 22 22 22 21 20 18 17 17 18 17 17 16 16 17 17 17 16 16 16 15 15 13 11 11 12 12 12 12 12 12 11 11 11 11 11 11 10 9 8 9 9 9 9 7 7 7 7 8 7 6 6 5 5 4 3 2 2 2 2
2 0 4 1 1 1 2 0 1 3 3 1 2 3 3 2 2 2 4 4 3 3 1 3 7 5 4 3 4 7 11 14 18 21 21 21 20 20 21 21 21 20 18 18 17 16 17 17 18 17 16 17 17 16 15 15 16 15 15 15 12 12 12 12 12 12 12 12 12 12 11 11 11 11 10 9 7 7 8 9 9 7 7 7 7 7 6 5 4 4 3 3 3 2 2 2 3
1 1 3 1 2 1 1 1 1 1 2 2 1 4 3 1 1 1 4 5 2 1 1 4 7 6 4 4 5 5 10 17 20 20 20 19 19 19 19 20 20 18 17 16 16 16 16 16 17 18 17 17 16 15 14 14 15 15 14 14 13 13 13 12 12 12 12 12 12 11 11 10 10 10 9 8 7 6 8 9 9 8 7 7 7 6 5 5 4 3 3 3 3 3 3 4 4
2 2 3 1 1 2 1 1 1 2 2 3 1 4 3 1 0 2 5 4 1 2 4 5 3 3 4 6 5 6 14 21 21 20 19 19 18 18 18 19 18 18 16 14 14 15 15 15 16 17 16 17 17 16 15 16 17 15 13 13 15 15 14 13 12 12 12 11 11 10 10 9 9 8 7 7 7 7 8 9 9 9 8 7 7 6 5 5 4 4 4 4 3 4 4 5 6
2 2 3 2 0 1 2 2 2 2 2 2 2 4 1 1 1 2 3 3 2 2 3 2 1 1 5 6 6 13 21 23 22 21 20 19 17 16 17 17 17 17 17 15 13 13 14 14 15 16 16 16 16 17 17 17 17 15 14 15 16 15 14 13 12 11 11 11 10 9 9 9 8 8 7 6 7 7 7 8 9 9 8 8 7 7 6 5 5 5 5 4 4 4 4 5 6
2 3 2 1 1 2 2 3 3 2 2 2 3 4 2 1 3 1 1 3 5 3 3 3 3 3 5 7 15 23 24 24 23 22 20 18 17 16 17 17 17 17 17 17 15 13 13 13 14 14 14 14 15 16 16 16 16 15 17 18 16 14 13 12 11 10 10 10 10 9 8 8 8 8 7 7 7 7 7 7 7 8 8 8 8 7 7 6 6 5 5 5 4 4 3 4 5
2 2 1 1 2 3 3 4 2 1 0 0 3 3 3 2 4 2 2 4 5 4 4 5 7 8 9 15 24 26 24 24 22 21 18 17 15 15 16 17 18 17 18 18 16 15 14 13 13 13 13 13 13 14 15 15 17 17 18 17 15 13 11 11 10 10 10 9 9 9 8 8 8 8 8 8 8 7 7 6 6 6 7 8 8 7 6 5 5 5 5 4 3 3 3 4 5
2 2 1 3 4 3 2 4 1 2 2 1 2 3 3 3 4 3 2 3 6 5 4 6 9 9 11 18 23 23 23 23 20 19 17 15 15 14 15 17 18 18 19 19 17 17 16 15 15 15 15 15 14 15 15 15 17 18 18 16 14 13 11 11 11 10 10 10 9 9 7 7 7 8 8 7 6 6 6 6 6 6 7 7 7 6 5 5 5 5 4 4 4 4 5 5 6
2 3 1 4 4 2 2 4 2 3 2 2 2 3 2 2 2 3 2 5 6 5 4 5 8 9 10 13 18 21 21 19 19 18 16 15 14 14 15 17 17 18 19 19 19 18 18 17 16 17 17 16 17 19 18 16 17 17 16 14 13 12 11 11 11 11 11 11 10 8 7 7 8 8 8 7 5 6 6 6 7 7 8 7 6 5 5 4 4 5 4 5 5 5 6 6 7
2 3 3 4 1 1 2 5 3 3 2 2 3 2 2 3 2 2 3 6 3 4 3 5 10 13 13 12 15 18 17 17 17 16 15 14 13 14 15 17 18 18 19 19 19 19 19 18 17 18 17 17 18 19 18 17 16 16 14 14 13 12 12 11 12 11 12 11 9 8 8 8 8 8 7 6 6 6 6 6 7 7 7 6 5 4 4 4 5 5 6 6 6 6 7 7 8
1 3 4 2 2 2 3 5 4 2 1 2 3 3 2 2 1 3 4 5 3 4 2 5 12 14 15 14 14 15 14 14 15 15 15 15 14 14 15 17 17 18 19 19 21 20 20 20 18 18 18 17 17 17 16 14 14 14 14 14 14 13 12 12 12 12 12 11 9 8 8 8 7 7 6 6 5 5 5 6 6 5 6 5 4 4 4 5 6 6 7 7 7 7 8 8 8
1 2 1 2 3 3 2 3 3 1 1 1 2 3 3 2 2 2 3 2 4 4 3 7 10 12 16 15 13 13 12 12 14 16 17 17 17 17 17 18 18 19 20 21 22 21 21 21 20 19 18 17 17 16 16 15 14 14 14 14 14 14 13 13 13 12 12 11 9 9 8 7 7 6 6 5 5 5 5 5 4 4 4 4 3 4 5 6 7 8 8 8 8 9 9 9 9
2 1 2 3 3 4 3 3 3 1 2 2 1 3 3 2 1 2 3 3 5 1 6 10 10 12 15 13 12 12 12 12 14 17 18 18 18 18 18 18 19 20 20 21 22 22 22 22 22 20 19 18 17 17 17 16 15 14 15 14 14 13 13 13 13 12 11 11 10 9 8 7 7 7 6 5 4 4 4 4 4 4 4 3 3 4 5 6 7 8 9 9 9 10 11 11 11
2 1 1 3 3 4 4 5 4 3 2 3 3 3 2 2 1 2 4 6 5 5 11 11 11 11 11 11 11 11 10 12 13 15 17 17 17 16 16 17 17 19 21 21 22 23 23 23 23 22 21 19 18 18 17 17 16 15 15 15 14 13 13 13 12 12 12 12 11 10 8 7 7 7 6 5 5 4 4 4 4 4 4 4 4 4 5 6 8 9 10 10 11 12 13 13 14
2 3 2 4 3 4 5 4 3 3 1 3 3 1 2 2 2 2 3 6 4 8 11 11 12 10 9 9 10 10 10 11 13 15 16 16 16 16 16 17 18 20 21 21 22 23 23 23 23 22 21 20 19 18 18 18 17 17 16 15 14 14 13 13 12 12 11 11 11 10 9 8 8 7 7 6 5 4 4 5 5 4 4 4 3 3 4 6 8 9 10 11 12 13 13 13 14
3 6 5 5 4 3 4 4 3 3 1 3 2 1 3 3 3 1 2 5 3 8 9 9 11 10 9 8 8 9 9 12 14 14 14 14 16 17 18 18 19 20 21 21 22 23 23 23 22 22 21 20 19 19 19 18 18 17 16 15 14 14 13 13 13 12 12 11 11 10 9 9 8 8 7 6 5 4 5 5 5 5 4 3 3 4 5 7 8 8 8 9 9 9 9 10 12
5 7 6 6 6 4 3 3 2 2 2 2 1 0 2 3 2 2 3 3 4 7 7 7 8 8 9 8 7 7 7 11 14 13 14 15 17 18 19 20 20 20 21 22 22 23 23 23 22 21 21 20 20 19 19 19 18 17 16 15 14 14 14 14 13 12 12 11 11 11 11 10 9 8 8 6 5 5 6 6 6 6 4 3 4 5 7 8 8 7 6 5 5 5 6 7 8
4 5 5 4 6 3 1 1 1 1 2 2 2 2 2 1 2 4 3 3 4 6 5 7 7 7 7 7 7 6 7 11 12 13 15 18 19 19 20 21 21 20 21 22 21 22 23 23 23 22 21 21 20 19 19 19 18 17 16 15 15 14 13 13 13 12 12 11 12 12 12 11 10 9 8 6 5 6 7 7 7 6 4 4 5 6 7 8 7 5 4 3 3 4 4 5 6
3 4 4 2 5 4 2 1 0 1 2 2 3 1 3 3 4 3 3 3 3 5 5 7 6 6 7 7 7 6 8 10 12 15 17 18 19 20 21 20 19 17 16 17 20 22 23 23 23 22 22 22 21 20 20 20 18 17 16 16 15 14 14 13 13 12 12 12 12 13 13 12 11 10 9 7 6 7 8 8 7 6 5 5 6 7 8 7 6 4 3 4 4 4 5 5 6
2 3 2 2 2 4 3 1 3 1 2 2 4 1 4 5 3 2 3 4 1 4 5 6 7 6 6 7 7 7 8 11 14 17 18 19 19 20 19 17 17 16 13 14 18 21 22 22 22 23 23 22 22 21 21 20 19 17 17 16 15 15 15 14 13 12 12 12 13 13 14 13 12 11 10 7 7 8 9 9 8 6 5 6 8 9 9 7 6 5 4 4 5 5 6 6 6
2 2 2 2 1 3 4 3 6 3 1 1 3 1 4 5 3 2 4 3 3 3 3 5 7 8 8 7 7 7 7 11 16 17 18 21 21 20 19 17 19 20 19 17 18 19 20 22 22 22 23 23 23 22 21 21 19 18 17 16 16 15 15 14 13 13 13 13 13 14 14 14 13 12 10 8 7 8 10 10 8 7 7 8 9 10 9 7 5 4 4 5 5 6 6 6 6
3 2 1 1 1 2 3 2 5 4 2 1 1 1 2 4 4 3 3 3 3 4 4 4 6 8 9 7 7 7 6 7 9 11 15 20 22 21 21 20 21 23 21 19 19 20 20 21 22 22 23 23 23 23 22 21 19 18 17 16 16 16 15 15 14 14 14 14 14 15 15 15 14 13 11 8 7 8 10 10 9 8 8 9 10 10 9 7 5 4 5 5 6 7 7 7 7
3 1 1 3 2 1 1 1 4 5 4 1 2 1 2 3 4 4 2 3 4 5 5 4 4 6 7 7 7 8 8 7 7 9 13 17 20 21 22 23 24 23 21 20 20 21 21 22 23 23 23 23 23 24 23 21 20 18 17 17 17 16 16 16 15 16 15 15 15 16 16 15 15 14 12 9 8 7 9 11 9 9 9 9 10 10 9 7 6 5 5 6 6 7 7 7 8
3 3 2 3 2 2 3 2 4 7 5 3 5 4 6 6 5 3 2 3 4 6 5 4 3 5 6 6 7 7 8 8 9 11 13 14 17 20 21 23 24 23 22 21 20 20 22 23 23 23 23 23 23 24 23 21 20 19 18 17 17 17 17 16 17 17 16 16 16 16 16 16 16 15 14 11 9 7 8 11 11 10 10 10 10 9 8 7 5 5 6 5 5 6 7 7 8
6 6 4 3 3 3 4 3 5 8 5 4 7 5 5 6 4 3 3 3 4 4 3 3 3 3 5 5 5 6 7 7 9 13 15 14 16 18 20 23 25 23 22 22 21 20 22 22 23 23 23 23 23 23 23 22 21 20 19 18 17 17 17 17 17 17 17 17 17 16 17 17 16 16 15 13 11 9 8 10 11 10 10 11 11 10 8 7 6 6 6 6 6 7 7 7 7
5 4 3 3 4 3 4 2 4 7 5 4 6 4 4 4 4 3 4 4 4 4 3 4 4 3 4 6 5 6 6 4 6 11 14 16 15 16 19 21 22 22 21 21 21 22 22 22 23 24 23 24 24 25 25 24 22 21 20 19 18 17 17 17 18 19 19 18 18 18 18 17 17 17 17 16 14 11 9 9 11 11 11 11 11 10 9 8 7 7 6 7 7 7 8 7 8
2 3 2 3 4 4 4 2 5 6 3 3 4 3 6 5 4 3 4 5 5 5 4 4 5 5 4 5 6 6 4 3 5 7 10 15 17 17 18 19 20 21 21 21 22 23 23 23 25 25 24 24 25 26 26 26 25 23 22 21 20 19 19 19 19 20 20 19 19 19 19 18 17 18 18 17 16 14 11 10 10 10 10 11 11 10 9 9 8 7 7 7 7 8 8 7 7
1 2 1 3 3 3 2 1 3 5 2 2 4 5 5 4 3 3 5 5 4 5 5 5 7 6 4 5 6 6 4 3 4 5 7 12 15 17 19 18 19 20 20 21 22 23 24 25 26 25 24 25 25 26 26 26 25 23 23 22 20 20 20 20 20 20 20 20 20 20 20 20 19 18 18 19 18 17 14 12 11 10 10 11 11 11 10 9 8 7 6 7 7 8 8 7 7
2 4 2 4 4 3 2 2 2 4 2 2 4 3 4 3 2 2 4 4 2 3 5 4 5 7 7 6 6 6 7 6 5 5 6 9 10 14 17 16 16 18 19 21 23 24 26 26 26 25 25 24 25 25 26 25 24 22 22 21 19 18 18 18 18 20 20 20 20 20 20 20 20 19 18 19 19 19 17 14 13 12 11 11 11 11 11 10 8 7 7 8 8 10 9 7 7
2 5 5 6 5 5 3 2 3 1 1 2 5 2 4 2 2 3 3 2 1 2 4 3 4 6 6 4 4 5 6 7 7 7 7 8 9 12 14 14 14 17 19 22 24 25 26 27 26 25 25 25 24 24 25 24 23 21 20 18 16 15 16 16 17 20 21 21 21 21 21 21 21 20 19 18 19 19 19 16 15 14 13 12 12 11 11 10 9 8 9 9 9 10 9 8 8
4 5 11 12 8 5 5 7 5 3 2 2 4 2 5 3 2 4 3 2 3 2 3 5 4 5 5 4 5 6 5 5 6 7 7 8 10 11 12 13 14 17 19 22 24 25 26 26 25 25 25 25 24 24 24 24 23 21 20 18 16 15 17 19 19 20 21 21 21 20 20 21 21 21 20 18 19 19 19 17 15 15 15 14 12 11 11 11 10 9 9 9 9 9 9 10 10
3 5 10 11 7 8 9 9 5 2 2 2 3 4 3 5 3 5 3 3 5 3 3 6 5 4 5 6 7 6 6 6 6 6 6 7 8 9 11 14 17 18 19 20 22 23 24 24 24 25 26 26 25 24 24 24 23 22 21 20 20 18 19 21 20 19 19 19 20 20 20 20 21 22 21 19 18 19 19 17 15 15 16 15 13 12 12 11 10 10 10 10 9 10 10 10 10
3 5 5 7 8 9 11 9 4 2 2 3 3 3 0 4 4 3 2 4 4 4 5 6 4 5 5 6 6 7 8 7 6 7 7 7 9 11 14 17 18 18 18 19 20 22 22 23 24 25 26 26 25 25 25 25 24 24 22 21 21 21 22 22 19 17 17 18 19 20 20 20 21 22 22 19 18 19 18 17 15 15 17 17 15 13 13 12 11 11 11 11 10 10 10 10 9
5 2 6 6 7 7 7 6 3 1 3 3 4 1 1 4 5 3 3 3 5 6 8 7 6 6 6 6 6 6 7 6 6 7 7 7 10 14 16 16 15 16 16 18 19 20 21 22 23 24 26 26 25 25 26 26 25 24 23 22 22 22 23 22 19 17 17 18 19 20 19 19 20 21 21 20 18 18 18 16 15 15 17 18 17 15 14 13 12 13 13 11 10 10 10 10 10
3 6 11 8 7 7 6 5 3 3 3 2 5 2 2 4 5 1 3 2 6 6 6 6 6 6 6 5 5 5 5 5 6 7 6 8 12 15 15 14 13 14 15 17 19 19 20 21 22 23 24 25 24 25 25 25 25 24 23 23 23 23 22 21 19 17 17 17 19 19 19 19 19 20 21 20 18 18 18 16 15 15 16 17 18 17 15 14 13 14 13 11 10 9 9 9 9
6 8 10 9 6 5 4 3 4 3 2 4 6 5 4 2 4 2 3 4 5 4 4 4 5 5 5 5 4 5 4 4 4 4 4 7 11 13 14 14 13 13 13 13 15 17 19 20 22 23 22 21 21 22 25 25 24 24 22 22 23 23 22 20 19 18 17 17 18 18 19 19 19 20 20 20 18 18 18 17 16 15 16 17 18 18 17 15 14 14 13 12 10 9 9 10 9
6 5 6 6 4 4 4 4 3 2 4 5 4 4 3 1 5 4 4 5 5 5 5 6 6 6 5 5 4 4 4 4 3 3 3 5 7 11 13 14 15 15 13 12 12 15 18 19 21 20 18 18 19 20 24 24 23 23 21 21 22 22 21 20 20 20 19 18 18 17 18 19 20 20 20 19 19 19 18 17 17 16 16 17 18 18 17 15 14 14 14 13 12 11 10 11 10
6 5 5 5 3 3 3 2 1 2 5 4 4 4 2 4 6 4 6 6 5 6 6 7 8 7 6 4 4 4 3 4 3 3 3 4 5 8 12 14 15 16 14 13 14 14 15 18 19 18 17 17 19 19 23 24 22 22 21 20 21 21 21 21 20 20 20 19 19 18 18 19 20 21 21 20 19 19 18 18 18 17 17 17 18 18 16 15 15 15 15 15 14 13 11 11 10
5 5 5 5 3 3 0 2 2 2 3 2 4 5 1 5 4 3 6 7 6 5 4 5 7 7 6 4 4 4 3 4 3 3 4 3 4 7 10 12 14 16 14 14 16 14 13 14 16 16 15 17 17 17 20 22 21 20 19 19 20 20 21 21 20 20 20 19 19 19 19 19 20 22 22 21 19 18 19 19 18 18 18 18 18 18 16 15 15 15 15 15 16 14 12 10 10
4 4 5 5 5 4 3 3 3 2 1 2 1 3 2 2 2 4 6 5 4 3 3 4 4 4 5 4 3 4 3 3 3 3 3 3 4 6 9 11 13 16 15 15 16 14 12 12 13 15 15 15 15 15 18 21 20 19 19 19 19 20 20 20 20 20 20 19 19 19 19 19 20 21 22 22 20 19 19 19 18 18 19 19 19 18 17 17 16 15 15 15 16 15 13 11 11
2 1 4 3 4 5 3 3 5 4 2 1 1 2 3 3 4 5 3 0 2 3 4 5 5 4 5 4 3 4 3 3 3 3 3 4 5 7 9 11 13 16 16 16 16 16 14 13 12 14 14 14 14 15 17 18 19 19 19 19 19 19 20 20 20 19 19 19 18 18 19 19 19 20 21 22 21 21 20 19 19 18 19 20 20 19 19 18 17 16 15 15 16 15 13 13 13
2 2 3 4 4 7 6 1 0 3 3 1 2 2 4 3 3 3 3 2 2 4 4 5 5 5 6 4 4 4 3 4 4 4 4 4 6 8 9 11 12 15 16 16 16 16 16 14 12 11 12 13 13 15 16 17 18 18 18 18 18 18 20 20 20 18 17 17 18 18 18 17 17 18 19 21 21 21 22 21 20 20 19 20 20 21 20 19 19 18 17 16 16 16 14 14 14
5 3 6 3 3 5 5 3 3 4 1 2 2 2 4 2 2 3 2 2 3 2 4 4 4 5 5 5 5 4 4 4 4 4 3 4 5 7 9 10 11 13 14 14 14 14 15 15 13 11 11 12 13 14 15 16 17 17 17 18 17 17 19 20 20 18 17 17 18 18 18 18 17 16 17 18 18 19 20 20 21 20 20 19 20 21 21 20 19 19 19 18 17 17 16 15 15
4 4 4 4 3 1 2 3 2 2 1 3 3 3 3 3 4 3 5 7 7 4 3 5 4 4 5 4 5 4 4 4 3 3 3 3 5 7 8 9 9 10 10 11 11 11 12 14 14 12 10 10 11 12 14 15 16 17 17 17 17 16 17 18 19 19 18 17 18 18 19 20 18 16 16 16 17 17 18 18 19 20 20 20 20 21 22 21 20 20 20 20 18 18 18 18 17
4 3 2 2 3 4 2 3 3 3 3 2 2 3 3 6 5 7 10 10 8 7 5 5 6 6 5 5 5 4 4 4 4 4 3 3 4 5 6 6 7 7 8 8 8 8 10 11 12 11 9 8 9 11 13 14 15 16 16 17 18 18 18 18 18 18 19 18 17 18 19 21 21 19 18 17 17 17 18 18 19 20 21 21 20 21 21 22 21 21 21 20 19 18 19 20 19
3 2 1 1 2 3 2 2 2 4 4 3 1 1 5 6 4 8 12 10 10 10 8 7 6 6 5 5 5 4 4 4 3 3 3 2 3 4 4 4 4 4 5 6 5 5 6 6 7 7 7 7 8 9 11 13 14 15 15 17 18 18 18 18 17 17 18 17 16 17 18 19 20 21 20 19 19 19 19 19 19 20 21 21 21 21 20 21 22 22 21 21 21 20 21 21 20
6 5 5 3 4 4 3 1 1 2 4 3 4 2 6 6 3 7 9 10 10 9 9 8 6 7 6 5 5 5 4 4 3 3 3 3 4 6 7 6 6 5 6 6 5 4 3 2 3 4 5 6 7 8 9 11 13 14 15 16 17 17 17 17 17 17 18 17 16 16 16 18 19 20 20 21 21 21 20 20 20 21 21 20 20 20 20 21 22 22 22 22 21 22 22 22 21
Wind_Direction
147 152 151 141 136 101 28 44 69 357 73 66 293 319 262 239 252 325 309 267 148 216 170 126 131 135 131 136 152 129 86 148 151 138 187 168 143 153 155 151 153 155 154 154 155 147 136 138 140 142 141 142 140 132 128 125 120 117 118 121 121 122 124 125 124 121 120 119 118 118 119 120 119 118 117 118 118 117 116 116 115 113 113 112 111 109 109 110 110 111 112 111 110 112 116 118 119
154 155 147 137 109 23 0 68 78 356 56 52 307 232 270 313 348 269 241 215 234 188 116 124 126 100 64 104 129 111 55 37 80 121 90 133 140 151 154 152 154 154 152 151 151 141 137 143 142 140 135 138 135 128 128 126 122 119 121 124 124 125 127 128 126 123 122 120 119 118 119 121 121 119 118 118 119 118 118 117 116 113 111 111 110 110 111 112 113 113 113 112 110 112 116 117 118
158 158 147 141 72 30 66 39 93 55 75 85 301 260 299 358 313 268 249 240 241 118 106 119 110 65 60 82 79 90 88 54 100 102 115 141 143 152 154 153 152 150 148 147 145 138 138 141 140 139 136 137 132 126 129 128 127 125 126 125 126 129 129 127 125 126 127 125 122 119 117 119 120 119 118 117 118 119 120 120 118 116 113 111 109 109 110 110 111 111 109 108 109 112 117 119 119
165 173 165 144 50 31 64 37 142 109 105 144 279 278 313 315 280 281 281 281 180 125 114 123 101 3 81 92 26 72 84 92 119 115 132 150 155 154 153 152 150 147 144 144 141 137 138 143 145 143 139 138 136 133 134 132 130 129 127 126 131 132 128 126 129 132 133 132 129 124 120 119 118 116 117 117 118 118 118 118 116 116 115 113 113 110 110 110 108 107 106 103 103 105 112 122 127
176 200 199 160 55 53 83 72 117 87 141 177 135 288 298 256 270 292 338 16 109 124 112 119 92 19 81 78 25 96 96 109 126 136 134 148 158 154 151 151 149 145 143 143 140 136 139 148 150 145 140 140 142 139 138 135 130 128 125 128 132 127 126 129 134 136 133 133 132 129 124 119 116 115 116 113 113 115 115 114 113 115 114 112 110 109 109 109 106 105 103 100 100 99 102 110 124
187 190 201 199 112 158 105 74 61 45 201 168 122 289 310 289 270 279 329 357 35 72 75 83 103 102 81 48 55 67 156 134 133 142 136 147 156 155 151 150 148 145 144 143 141 137 141 151 151 145 143 144 144 140 138 136 130 128 131 135 133 127 130 131 134 135 131 130 131 129 122 118 118 118 116 112 111 113 114 114 114 114 112 111 109 108 106 105 105 103 99 96 98 98 96 95 105
195 178 204 223 258 95 97 100 87 25 273 177 160 274 310 315 278 30 340 0 32 35 50 83 115 104 74 49 79 30 47 138 134 143 147 150 154 154 153 152 149 148 147 144 143 141 144 150 148 144 146 145 144 140 137 139 135 134 143 144 139 137 134 131 133 133 129 128 130 127 122 121 122 122 121 117 115 115 115 115 114 113 113 114 113 110 107 107 107 104 100 96 95 93 93 91 90
205 222 21 81 0 32 90 101 94 195 255 253 232 250 294 318 294 64 57 39 33 44 77 119 112 88 43 31 87 37 71 124 135 144 148 148 151 153 155 154 150 150 150 147 146 144 144 149 145 144 146 144 142 141 144 147 140 137 148 149 147 146 139 135 134 132 129 129 130 127 126 126 126 126 127 123 120 119 119 118 116 115 116 117 116 115 115 116 113 109 106 101 100 97 98 101 99
185 341 33 64 0 28 59 41 29 229 265 283 268 270 292 317 339 83 48 339 133 105 84 131 77 93 98 60 86 59 87 123 133 139 145 148 151 154 156 156 152 152 154 151 150 147 146 150 145 144 148 145 145 152 156 150 141 141 149 153 150 149 146 141 137 136 134 135 133 132 133 132 131 130 129 127 126 125 124 122 119 119 121 123 124 124 125 124 121 117 112 109 111 111 115 117 122
49 25 72 60 59 31 2 325 75 281 273 257 263 279 297 325 12 95 147 344 129 103 87 75 63 105 119 77 75 63 111 128 131 135 145 149 152 155 157 158 156 157 157 154 153 152 151 154 149 148 151 151 155 160 159 152 152 153 151 153 152 152 151 148 145 143 141 141 139 137 136 134 136 135 133 131 132 134 131 128 125 127 133 134 134 135 135 132 128 125 120 121 124 122 128 130 142
355 349 71 62 43 35 227 180 191 284 276 288 278 259 298 322 19 179 131 117 69 103 135 84 81 112 98 72 67 107 123 128 131 137 147 151 154 156 158 159 160 160 159 156 155 155 153 154 153 152 154 156 159 161 160 161 164 161 153 153 156 157 157 158 155 153 149 143 140 136 133 131 133 134 132 133 138 142 139 137 138 143 147 143 142 145 143 138 135 134 132 136 142 149 155 158 171
13 333 58 66 25 214 223 185 291 295 294 343 314 274 328 319 117 145 123 127 112 110 170 115 138 142 86 78 117 125 125 127 134 141 150 152 155 157 160 161 161 161 159 158 158 157 155 155 157 156 157 159 161 163 164 164 163 162 158 153 158 165 163 164 160 155 149 141 139 135 132 134 134 133 131 133 140 147 150 151 153 157 155 149 149 150 146 140 141 144 147 160 173 186 196 204 220
61 59 75 40 265 213 267 279 309 327 326 339 283 295 336 6 99 172 122 108 106 109 242 140 146 123 85 110 121 135 131 133 139 144 151 153 156 158 160 162 162 162 159 161 160 159 160 160 162 160 159 162 163 164 165 163 160 165 164 154 161 173 169 165 159 151 145 141 142 139 138 140 138 136 134 134 139 147 157 162 162 162 158 154 157 155 151 149 153 162 175 193 206 220 237 248 251
127 149 98 5 332 343 270 151 17 30 296 293 277 300 322 58 106 198 111 95 73 133 102 116 132 101 93 141 135 156 143 142 145 145 150 151 156 157 159 162 162 162 161 165 162 160 164 164 167 165 163 163 162 162 164 165 165 168 163 158 169 179 174 168 160 151 148 148 146 142 142 141 140 138 137 139 142 146 154 163 166 166 165 164 166 161 161 167 174 187 204 218 234 253 264 265 259
145 127 90 88 0 336 246 175 119 130 258 297 341 303 330 81 299 70 97 106 276 180 108 103 130 90 149 173 163 167 149 147 148 146 148 149 153 154 157 161 162 164 164 168 166 164 166 168 171 171 171 166 163 162 162 169 173 170 161 169 184 181 177 172 164 158 153 153 150 147 145 142 141 138 142 146 145 145 147 157 164 169 175 175 173 172 176 185 195 206 219 230 247 262 269 265 255
128 106 70 74 309 293 233 191 135 127 246 278 328 316 41 59 357 72 100 112 120 155 105 115 238 62 156 173 154 149 147 148 148 148 147 146 148 150 156 160 164 167 168 168 170 172 169 172 177 174 172 168 168 165 163 172 172 167 167 187 194 179 175 173 166 163 159 158 153 148 147 147 146 144 151 151 147 148 147 152 161 169 177 179 180 183 188 196 206 216 228 240 255 261 266 265 253
83 81 73 38 224 204 219 183 168 178 215 248 326 346 75 353 350 75 186 101 123 141 56 62 31 45 128 140 137 142 145 146 147 148 146 145 145 148 155 162 166 168 171 172 171 176 175 177 179 173 171 171 173 167 168 172 166 170 185 196 192 174 171 169 166 167 163 163 157 154 159 160 159 156 159 160 157 157 152 153 162 171 177 182 186 188 193 202 212 224 236 246 261 264 261 256 242
78 84 105 258 217 203 199 162 185 283 62 279 314 340 68 29 336 345 35 74 114 106 52 64 52 51 93 119 132 140 145 145 147 148 147 148 148 150 157 164 168 169 173 175 174 174 175 178 178 173 173 176 176 173 175 172 167 181 193 192 181 169 168 166 169 172 168 168 164 167 172 170 168 163 161 161 161 159 157 161 167 175 181 187 190 192 200 209 222 233 240 246 248 246 236 225 214
118 113 141 243 215 212 161 128 88 22 4 335 310 317 68 62 331 358 53 127 135 104 61 78 77 78 100 117 130 140 146 147 150 151 152 155 155 156 159 165 170 174 176 179 180 177 176 179 177 174 178 181 178 179 182 177 175 186 189 180 172 168 169 171 176 179 175 175 176 177 176 175 172 164 161 158 159 164 166 171 175 181 187 194 198 203 213 221 232 237 239 240 231 224 217 210 204
159 114 190 249 221 221 100 107 84 65 7 328 312 305 35 36 347 12 98 154 158 143 135 113 113 121 122 127 135 144 150 150 153 154 157 161 163 162 161 168 173 177 180 182 184 182 182 181 179 177 182 185 180 180 185 186 183 186 184 173 172 174 175 180 184 185 184 185 185 183 181 175 168 164 166 163 169 177 176 178 182 187 192 198 206 215 223 227 236 238 238 237 232 226 219 216 213
163 142 198 245 195 31 50 92 79 59 33 321 316 330 13 356 0 16 113 140 198 201 168 150 150 145 139 143 143 149 155 154 157 158 161 165 167 167 168 173 178 180 182 185 187 188 188 187 187 183 185 189 185 184 187 189 185 182 179 173 177 181 183 188 194 196 195 195 192 190 183 170 164 165 170 171 174 178 177 180 185 193 198 204 217 229 230 235 239 236 237 235 232 229 226 226 225
149 195 196 209 115 50 18 75 78 48 25 333 338 9 356 342 36 22 84 127 218 227 190 148 153 151 147 150 148 152 160 160 162 163 166 171 171 172 173 175 179 183 184 188 190 192 193 193 193 191 191 193 193 193 192 192 188 184 183 182 185 188 191 197 205 207 202 200 198 193 181 167 167 169 173 179 181 183 178 179 188 201 211 216 229 242 240 242 241 237 238 235 232 231 231 231 233
133 263 144 115 102 68 22 63 76 52 34 298 326 16 339 356 47 16 65 110 259 243 170 136 146 150 145 147 151 156 166 169 170 170 172 175 176 177 177 177 180 184 186 191 194 195 196 197 197 197 195 196 197 199 199 197 196 194 192 193 195 196 200 206 213 214 206 202 198 191 182 174 180 186 190 188 185 185 178 180 191 209 221 221 235 249 249 250 247 244 245 242 241 239 240 241 244
118 309 35 88 72 65 67 83 87 37 19 287 15 50 333 349 40 356 23 329 297 246 125 125 136 143 143 148 157 162 169 175 177 178 178 180 182 182 181 181 182 185 187 191 196 197 198 199 200 200 199 198 199 201 203 203 202 200 199 201 203 204 210 212 216 216 208 203 199 195 191 192 198 204 204 193 188 184 183 191 195 210 223 223 239 255 259 259 257 256 256 254 251 251 253 257 259
138 133 56 88 66 65 71 79 78 42 19 318 24 80 283 309 20 342 354 331 336 104 119 123 132 141 148 157 163 165 171 178 181 180 182 185 185 184 184 184 184 187 189 192 195 198 200 202 202 204 203 200 201 203 206 207 206 204 205 208 210 213 217 216 217 214 208 204 203 203 203 208 211 212 206 196 192 187 194 207 206 213 221 228 239 255 268 269 268 268 266 263 263 264 267 269 270
178 111 81 83 57 55 62 57 43 27 22 332 2 43 290 334 12 350 338 327 0 108 121 128 137 147 159 166 169 169 171 180 185 183 182 185 185 185 188 188 188 190 193 194 195 198 200 203 205 206 206 203 204 205 207 210 210 210 211 214 217 219 221 220 219 215 209 208 209 209 212 217 217 213 205 197 195 200 215 222 220 216 210 223 239 264 283 284 281 276 270 270 271 272 273 275 274
110 97 78 71 59 48 57 49 13 339 3 7 2 322 328 10 39 4 302 329 40 107 118 136 147 154 166 173 174 173 179 187 187 182 178 182 187 190 191 192 194 195 195 195 197 199 200 203 206 208 208 206 206 208 209 212 214 215 217 218 218 220 222 222 222 220 214 213 216 216 219 220 217 211 202 200 207 221 233 231 229 221 211 227 264 285 292 291 285 279 275 275 275 271 273 279 280
102 107 76 41 38 31 33 47 357 332 39 7 352 123 6 23 37 233 257 340 61 111 126 152 157 161 170 176 179 177 186 192 189 185 182 186 191 193 195 196 197 197 197 198 199 199 200 203 207 209 209 208 208 209 211 212 215 217 220 220 217 216 221 223 225 224 218 217 220 221 222 219 217 211 205 209 224 237 239 234 234 226 221 249 280 285 287 286 281 279 279 278 278 270 272 284 289
94 94 79 26 23 5 323 83 309 3 70 337 353 42 2 346 275 259 265 351 64 109 147 172 170 173 175 176 183 185 186 190 193 197 197 195 195 196 199 202 200 199 201 202 200 200 201 204 206 209 210 211 212 211 211 213 214 217 220 221 217 214 218 222 223 222 220 221 224 223 220 218 217 215 215 222 235 243 239 236 235 228 231 261 277 277 274 275 273 276 287 281 275 272 275 289 296
72 63 80 51 18 325 258 144 268 25 45 17 49 21 297 261 260 274 290 330 85 130 178 192 184 181 181 182 187 191 186 188 198 205 206 203 201 201 203 205 202 201 204 204 202 202 203 203 205 208 210 213 215 213 213 213 214 216 220 220 217 216 217 220 223 222 222 225 226 223 218 219 220 220 224 232 241 243 238 236 234 231 240 260 271 266 260 264 263 266 285 277 266 271 276 284 290
78 77 51 46 26 303 294 167 158 105 2 42 77 62 278 278 288 281 272 308 12 171 185 192 198 188 185 191 188 189 190 194 204 208 208 208 207 206 205 201 198 199 205 214 213 209 205 204 205 207 210 213 215 216 216 215 216 218 220 221 219 219 220 222 224 225 226 227 227 223 221 222 223 226 229 236 244 241 237 234 232 236 240 249 258 253 249 255 257 255 266 266 268 277 278 280 285
70 108 329 354 136 277 306 230 179 148 6 58 83 91 278 288 300 265 248 284 292 245 205 185 196 193 191 198 191 189 195 198 205 209 211 212 210 209 205 195 197 204 209 217 219 213 209 207 206 207 208 211 214 217 219 219 220 222 222 224 224 226 228 229 229 230 232 232 230 226 226 226 227 229 229 237 246 242 237 232 231 237 234 238 245 244 243 248 250 250 260 268 279 282 277 281 290
359 88 252 284 168 272 313 242 202 160 112 76 85 140 273 296 303 298 252 218 226 248 247 200 191 195 194 197 197 195 197 194 196 201 208 212 210 209 206 198 203 211 214 215 213 212 211 210 209 208 209 211 214 217 220 222 223 226 227 226 229 233 236 237 235 235 237 236 233 230 229 228 228 228 227 236 248 243 235 229 231 237 234 234 238 239 241 245 249 254 269 284 291 285 277 284 295
309 52 229 247 198 223 289 261 219 167 135 149 162 192 244 258 284 298 261 188 195 221 237 224 194 194 194 195 201 199 195 193 188 182 189 200 204 206 205 202 207 215 217 213 211 213 213 212 210 210 211 212 214 216 219 223 225 228 231 231 232 236 241 244 242 241 239 238 234 232 232 230 228 226 226 233 243 242 230 228 234 240 239 235 236 241 242 246 256 267 280 290 294 287 282 292 300
186 185 206 243 204 213 227 231 200 170 152 160 168 220 249 245 264 269 214 174 197 216 217 226 213 189 186 186 193 194 188 196 200 183 175 182 192 199 202 202 206 212 216 213 211 212 210 211 212 210 211 212 213 215 217 221 224 228 230 232 234 237 242 244 244 242 238 236 234 232 233 232 228 224 226 231 238 240 231 231 236 241 243 237 238 244 245 252 268 284 289 289 289 285 288 297 304
168 183 169 182 196 235 231 217 197 172 153 174 182 209 238 240 251 211 165 163 210 227 194 212 238 202 181 176 181 186 184 191 196 183 173 173 183 193 197 199 204 207 213 215 210 208 206 208 211 209 210 212 211 211 213 216 219 223 227 230 231 234 238 237 239 240 236 233 232 234 234 233 230 225 225 229 234 235 234 235 233 238 245 243 244 246 253 262 274 291 294 290 288 286 292 299 313
142 162 159 192 206 253 255 221 202 169 147 202 199 221 243 236 247 207 156 155 210 228 194 201 223 217 191 177 179 183 183 173 172 181 177 175 183 191 193 196 200 201 207 211 209 209 209 209 209 209 209 211 210 209 211 213 214 216 222 227 228 231 233 232 233 234 235 233 233 237 237 235 233 229 227 227 231 232 232 235 232 237 244 246 249 251 261 265 270 287 290 290 289 293 298 303 326
116 150 187 244 235 240 250 210 193 176 157 220 190 217 252 240 242 223 159 162 205 211 198 201 206 220 213 184 186 182 171 134 152 182 183 179 183 188 194 196 196 198 201 206 209 210 212 211 209 209 209 211 212 212 212 213 216 218 221 226 229 232 234 236 235 232 233 236 236 238 239 237 234 232 230 228 231 231 231 235 236 241 243 246 251 254 263 263 268 282 285 291 292 299 303 306 332
211 134 150 262 249 216 268 354 166 176 187 249 189 198 248 251 242 229 180 179 208 202 194 201 195 201 216 201 196 185 169 154 169 190 191 189 185 183 193 200 198 200 201 203 206 204 205 207 207 209 211 212 214 215 215 216 219 221 224 229 233 236 239 242 242 237 235 237 239 239 239 239 235 234 233 230 231 232 233 234 237 244 247 250 254 256 260 260 269 276 279 292 295 305 308 309 329
180 147 160 255 231 171 256 304 140 159 175 189 166 190 266 270 253 244 208 197 212 192 186 207 199 193 204 204 199 191 180 179 187 199 202 203 196 188 194 199 198 200 201 200 201 199 201 203 206 210 213 215 216 216 218 218 219 220 223 229 234 239 242 244 243 241 240 240 240 239 239 238 236 234 233 233 233 233 235 236 238 246 252 259 260 256 257 259 270 273 275 289 296 307 312 314 323
226 184 201 241 221 174 197 181 134 71 334 122 108 44 304 255 191 217 223 212 219 176 154 183 222 209 206 208 219 216 197 188 189 197 204 202 202 199 196 197 198 199 200 202 202 201 203 204 207 212 215 217 219 219 218 216 216 216 216 221 228 236 239 240 240 241 242 241 239 238 236 236 236 234 233 234 235 234 237 239 242 246 252 260 261 257 258 261 271 274 276 285 294 305 307 308 315
304 225 215 229 216 153 132 140 121 49 314 238 108 70 295 292 229 218 212 193 208 199 162 184 212 212 201 203 219 230 227 216 201 201 206 202 202 201 197 199 201 201 203 205 206 205 206 207 209 213 216 219 220 220 218 215 215 214 212 214 217 223 228 231 235 238 242 243 242 240 237 237 236 235 234 234 236 236 237 239 242 246 248 253 257 260 262 262 271 276 279 285 294 307 308 302 307
319 243 209 215 193 141 145 152 132 113 233 273 102 140 269 312 285 233 194 187 212 219 205 204 201 193 199 205 209 217 224 226 220 217 215 206 203 199 201 205 205 205 205 206 208 208 208 210 211 215 218 219 220 220 218 216 215 215 216 219 222 222 225 231 236 240 245 248 247 245 242 239 237 235 234 234 236 236 235 237 240 244 245 248 253 259 263 264 270 276 279 283 293 308 309 301 303
254 259 164 161 161 155 160 148 123 165 172 358 27 119 229 304 282 269 140 171 224 235 229 230 213 194 198 208 210 211 215 217 217 219 214 207 204 205 210 213 211 209 205 204 206 206 208 212 215 217 219 220 220 219 217 217 216 216 219 223 226 229 232 237 241 243 245 246 248 247 244 241 239 236 234 234 236 236 235 235 237 243 244 244 249 256 261 264 269 273 275 280 289 300 307 305 301
247 276 92 121 135 135 139 117 88 87 85 5 311 127 138 270 281 345 72 168 235 233 224 228 221 208 199 199 207 211 217 219 217 221 215 206 207 211 215 216 216 212 206 205 206 207 210 213 215 217 219 220 220 218 216 216 217 218 221 223 226 231 236 239 242 245 245 243 244 246 244 242 239 237 235 236 237 235 234 235 236 243 245 243 247 253 259 263 268 272 272 277 286 294 302 301 294
211 98 80 75 79 85 89 89 83 47 48 250 249 196 139 278 281 8 72 219 240 229 225 227 220 216 207 200 203 204 211 213 215 223 216 207 212 215 217 217 216 213 208 208 208 208 213 215 215 216 217 218 219 219 217 215 215 217 219 222 225 230 234 236 239 244 245 243 243 244 243 240 238 236 235 237 238 235 234 236 238 243 247 246 246 250 256 261 266 270 271 275 283 294 303 298 287
125 93 82 71 59 62 63 54 78 67 321 263 229 185 148 300 281 225 176 213 212 197 219 230 219 219 216 211 204 193 196 199 203 209 195 198 207 209 209 209 209 206 202 205 208 211 214 217 218 215 213 219 220 219 218 215 213 215 218 221 224 228 232 233 235 240 242 242 242 242 240 237 234 232 234 238 238 236 235 236 240 246 250 249 246 247 252 257 262 266 269 274 280 290 302 300 288
100 84 94 83 30 22 33 4 36 104 257 270 236 173 129 246 262 242 228 230 209 189 197 199 197 208 214 212 202 186 187 188 175 167 160 168 180 187 193 196 199 197 190 191 201 212 218 220 223 214 203 218 230 223 220 216 211 214 217 220 225 228 231 233 236 240 241 241 241 240 237 236 233 230 233 238 236 235 238 239 241 246 250 248 243 243 246 251 256 262 267 270 275 284 296 298 287
75 90 96 79 36 19 29 333 336 210 242 253 193 150 123 247 242 239 245 246 228 205 196 188 184 189 200 205 194 179 183 185 170 159 163 161 163 177 184 186 192 192 188 190 193 202 216 221 228 218 195 207 228 225 222 218 211 214 218 222 228 230 232 236 239 242 244 243 242 241 237 236 234 231 232 236 236 237 240 242 243 245 247 244 239 238 243 249 254 259 266 268 269 276 289 292 282
130 144 131 110 102 75 28 266 284 258 264 264 179 166 221 278 261 234 245 254 241 215 194 186 178 172 180 187 174 167 184 186 173 169 175 181 178 180 183 184 190 192 192 200 200 202 216 220 229 230 208 205 218 222 224 223 216 218 222 226 231 231 233 237 239 242 245 245 245 243 241 238 236 234 234 236 239 242 244 244 244 246 247 243 238 239 243 248 253 258 264 265 264 267 278 283 276
178 178 136 140 148 144 187 207 195 216 270 346 147 163 194 244 258 255 256 257 237 196 156 146 140 138 141 140 141 152 182 188 171 176 190 199 190 181 179 180 190 198 201 211 216 218 223 222 228 237 227 215 215 218 225 227 223 222 225 228 232 233 235 237 239 242 244 244 245 245 244 242 239 237 237 239 243 246 247 245 244 246 247 244 240 240 244 247 250 256 261 262 258 259 267 272 271
206 155 108 156 177 145 144 179 175 161 121 36 240 212 215 213 255 286 310 2 136 125 124 119 109 108 113 125 155 161 178 188 175 183 200 209 199 189 185 182 189 201 211 222 228 227 223 220 223 235 237 229 222 219 226 232 230 226 226 228 232 235 235 235 236 239 241 242 244 245 245 243 241 239 239 241 245 248 249 247 246 247 247 245 242 240 246 249 249 252 258 260 254 253 262 267 268
162 129 165 216 171 122 112 135 110 90 116 237 265 270 304 320 280 314 31 85 116 107 122 123 116 123 126 143 171 171 176 183 184 189 193 197 197 196 195 194 194 201 212 223 229 229 224 219 220 229 237 235 229 225 229 234 232 229 229 229 233 236 234 233 233 234 236 240 243 244 245 242 240 238 238 241 244 248 250 250 250 250 249 247 244 243 247 251 251 251 255 259 255 253 260 265 266
125 179 202 191 110 97 98 104 23 44 139 276 306 265 296 326 273 317 28 186 197 153 131 119 116 137 146 156 166 170 174 177 184 180 172 178 188 195 200 204 208 210 218 226 232 233 229 225 228 234 240 239 237 234 233 234 233 230 231 233 235 236 235 236 236 235 234 237 241 243 243 242 238 235 234 238 241 244 247 249 250 251 251 249 246 246 250 253 255 255 256 260 259 256 261 265 266
114 175 177 115 124 144 79 115 120 101 167 287 307 293 264 208 227 241 201 200 202 193 154 135 151 168 167 166 165 163 156 160 177 167 160 174 181 191 199 207 216 218 225 232 234 236 234 232 235 241 248 246 243 243 239 238 238 234 234 238 238 235 235 238 239 238 236 235 239 242 242 243 241 236 232 232 236 240 244 247 249 250 252 251 249 248 250 254 258 259 259 261 262 261 263 267 268
50 107 113 57 123 158 150 140 146 140 150 241 298 328 261 224 216 192 194 200 188 180 177 171 181 188 187 182 172 162 157 164 178 170 165 172 172 183 194 207 219 219 225 231 231 235 238 237 239 245 255 254 249 248 247 246 244 240 239 240 239 236 236 237 237 237 236 235 239 242 243 245 245 242 237 233 235 240 245 247 249 251 253 253 252 250 251 254 259 262 262 264 266 267 267 268 271
85 106 200 7 72 126 146 94 94 128 139 177 177 308 264 249 208 183 190 194 186 180 178 181 187 189 196 197 176 163 162 165 169 163 155 146 142 145 156 180 195 196 204 213 215 221 228 237 247 256 262 262 258 254 254 255 252 247 245 244 243 241 239 237 236 234 233 235 238 242 245 247 247 245 243 240 239 240 244 247 248 250 253 254 253 252 254 258 261 264 266 268 269 271 270 270 272
155 167 193 173 125 124 118 68 304 115 121 168 157 194 267 260 207 196 189 180 185 182 171 175 186 187 195 203 182 165 158 156 157 150 139 131 131 129 132 145 154 157 165 174 181 187 196 224 255 268 269 269 269 265 262 261 257 253 252 250 250 248 243 238 236 234 233 234 236 240 245 248 250 250 249 246 244 242 241 243 244 247 251 252 252 253 256 261 264 266 268 270 270 269 270 270 270
Height
770 771 771 772 771 771 773 774 788 792 793 806 805 802 797 789 789 787 787 784 784 778 772 774 775 777 782 787 790 789 792 796 799 809 810 795 790 793 793 795 796 796 798 799 801 804 807 809 810 811 812 813 812 811 812 812 814 815 818 819 818 818 819 820 820 820 821 822 823 823 824 825 826 827 827 828 828 829 829 829 830 830 831 831 832 833 834 835 835 836 836 837 838 839 840 841 841
770 772 771 772 771 774 779 778 794 800 799 809 805 801 794 787 788 787 786 784 782 775 770 773 774 776 778 779 782 787 792 792 790 793 793 790 792 793 794 796 796 798 799 801 803 806 809 809 810 811 812 814 813 813 813 814 815 816 818 820 820 820 820 821 821 822 822 823 824 825 825 826 827 828 828 829 829 830 830 831 831 831 832 832 833 834 835 836 836 837 837 838 839 839 840 841 841
771 772 772 774 773 775 781 782 797 804 805 811 803 796 791 788 788 785 783 779 776 772 771 774 776 778 780 784 786 790 794 791 789 789 790 791 792 793 795 796 797 799 800 802 805 808 809 809 811 811 812 814 814 815 815 815 816 817 818 820 822 822 822 822 823 823 823 824 825 826 826 827 828 829 829 830 831 831 831 832 832 832 833 833 834 835 835 836 837 837 838 838 839 840 840 841 841
772 773 772 774 777 780 785 791 798 801 808 813 805 794 789 790 786 783 779 775 773 771 773 776 781 779 780 790 789 791 795 791 789 788 790 792 792 793 795 796 798 799 801 803 806 809 810 810 810 811 812 814 815 816 816 817 817 818 819 820 823 824 824 824 824 824 824 825 826 827 827 828 829 829 830 831 831 832 832 833 833 833 834 834 835 835 836 836 837 838 838 839 840 841 841 842 842
772 774 773 774 782 785 788 795 797 801 805 806 803 794 790 790 785 782 777 774 773 772 774 776 784 781 780 788 788 793 795 791 789 788 789 791 792 794 795 797 798 800 802 804 807 810 811 810 811 812 813 814 816 817 818 818 818 819 820 822 823 824 825 825 825 825 826 826 827 827 828 829 829 830 831 831 832 832 833 834 834 834 835 835 835 836 836 837 838 838 839 840 840 841 842 843 843
772 773 773 773 780 782 790 798 799 802 799 796 799 793 788 787 784 781 778 776 773 772 773 776 783 784 788 789 786 791 791 790 790 788 789 791 793 794 796 797 799 801 803 805 808 810 810 810 812 813 814 815 817 818 819 820 820 821 822 823 824 825 826 826 826 827 827 827 828 828 829 830 830 831 832 832 833 833 834 834 835 835 835 836 836 837 837 838 838 839 839 840 841 842 843 843 844
772 775 775 778 781 782 795 802 801 803 796 792 794 790 787 785 783 781 780 780 777 775 775 778 779 784 795 791 789 790 786 788 787 789 790 791 793 795 797 798 800 801 803 806 808 810 810 810 812 814 815 816 817 819 821 821 821 822 824 825 826 826 826 827 827 828 828 828 829 829 830 831 831 832 833 833 834 834 835 835 836 836 836 837 837 838 838 839 839 840 840 841 842 842 843 844 844
772 776 778 784 790 789 798 802 800 801 794 789 789 787 785 783 782 781 782 783 782 779 779 780 777 787 797 791 794 792 786 788 787 789 791 792 795 795 797 799 800 802 804 807 808 810 811 812 813 815 816 817 817 819 821 822 822 823 825 826 827 827 827 828 828 829 829 830 830 831 831 832 832 833 834 834 835 835 836 836 836 836 837 838 838 839 839 840 841 841 841 842 843 843 844 845 845
771 776 780 787 794 794 799 801 800 797 791 788 786 784 781 781 781 781 782 783 782 782 782 780 778 789 798 793 796 792 787 790 788 791 792 794 795 796 798 799 801 802 804 807 808 810 811 813 814 815 816 816 817 819 821 822 823 824 826 827 828 828 828 829 829 829 830 831 831 832 832 833 833 834 834 835 836 836 837 837 837 837 838 838 839 840 840 841 842 842 843 843 844 844 845 846 846
774 778 783 791 796 800 801 800 799 795 790 786 785 783 781 780 780 780 782 783 781 783 783 779 781 790 796 797 798 792 791 790 789 793 794 796 796 797 799 800 802 802 804 807 809 810 812 814 815 816 816 817 819 819 821 822 824 825 827 828 828 829 829 830 830 831 831 832 832 833 833 833 834 834 835 835 836 837 837 838 838 838 839 839 840 840 841 842 843 843 844 844 845 845 846 847 847
780 781 782 794 800 804 802 800 799 794 789 785 784 781 780 780 781 781 781 783 782 784 783 780 788 793 795 799 798 793 792 792 792 794 795 797 798 799 800 801 803 803 805 807 810 811 812 814 816 817 818 819 820 821 822 823 826 827 828 828 829 830 830 830 831 831 832 832 833 833 834 834 835 835 836 836 837 837 837 838 838 839 839 840 840 841 842 843 843 843 844 845 845 846 847 847 848
786 787 787 800 806 806 802 801 801 794 789 786 784 780 779 779 781 782 781 784 783 785 783 781 787 789 797 802 797 793 792 794 794 795 797 798 799 800 801 802 804 805 806 808 810 811 812 814 815 817 818 819 821 822 823 825 827 827 828 828 829 830 831 831 831 832 832 833 834 834 835 835 836 836 837 837 837 837 838 838 839 839 840 840 841 842 842 843 844 844 845 845 846 847 847 848 848
786 790 792 803 806 808 805 803 802 796 792 788 785 780 778 779 781 782 781 783 784 787 783 778 780 784 798 802 795 794 794 795 796 797 799 799 801 802 802 803 805 806 808 809 810 811 812 813 815 816 818 819 820 821 822 824 825 826 827 827 829 831 831 832 832 833 833 833 834 835 835 836 836 837 837 837 838 838 838 839 839 840 840 841 841 842 843 843 844 844 845 845 846 847 847 848 848
783 787 792 803 805 807 805 803 802 800 796 788 784 780 778 779 779 779 779 785 786 785 780 774 777 785 798 800 798 797 794 796 797 799 800 801 802 803 804 805 806 807 809 810 811 812 813 814 815 816 817 819 820 821 822 822 823 825 825 826 829 832 832 833 833 833 833 834 834 835 836 836 837 837 838 838 838 838 838 839 840 840 841 841 842 842 843 843 844 844 845 845 846 847 847 848 847
780 784 791 802 807 807 804 803 802 801 797 787 783 781 780 779 776 777 778 785 786 778 775 775 776 785 794 798 799 795 793 796 797 800 801 802 804 804 806 806 808 808 810 811 812 814 815 815 816 817 818 820 821 821 823 823 823 823 824 827 830 832 833 833 834 834 834 834 835 836 836 837 837 838 838 839 839 839 839 840 840 841 841 842 842 843 843 844 844 845 845 845 846 847 847 847 847
777 782 793 804 810 810 804 802 802 801 795 786 783 780 782 780 775 778 776 778 783 776 776 779 777 781 787 790 791 790 792 796 797 800 801 803 805 806 807 808 810 810 811 812 813 815 815 816 817 819 820 821 823 823 824 825 824 824 826 831 832 832 833 833 834 834 834 835 835 836 836 837 838 838 839 839 839 840 840 840 841 841 842 842 843 844 844 845 845 845 845 846 846 847 847 847 847
776 784 799 807 810 811 803 800 801 798 792 787 785 782 783 782 776 776 772 773 781 780 779 781 777 777 781 783 785 788 792 795 798 800 802 804 805 807 809 809 811 811 812 813 814 815 816 817 818 820 821 822 823 823 825 826 826 828 831 834 833 832 832 833 834 834 834 835 836 836 837 837 837 838 838 839 840 840 840 841 841 842 842 843 844 844 845 845 845 845 846 846 846 847 847 847 847
781 792 803 806 807 804 796 796 796 792 791 789 786 784 783 784 781 776 775 778 780 783 783 782 781 780 780 782 785 789 793 795 798 800 802 804 805 807 809 810 811 812 813 814 815 816 817 818 818 820 820 821 822 823 825 826 828 831 834 834 833 832 832 833 834 834 835 835 836 836 837 837 837 838 838 839 840 840 841 841 842 842 843 843 844 844 845 845 845 845 846 846 846 846 847 847 847
785 796 803 802 797 793 789 791 791 790 792 790 787 785 782 784 783 777 781 786 783 787 789 786 788 787 785 785 788 791 793 795 797 800 802 803 805 806 808 809 811 812 813 814 816 817 818 819 820 821 821 821 823 825 827 828 830 832 833 832 831 832 832 833 834 834 835 835 836 836 837 837 838 838 838 839 840 840 841 841 841 842 842 843 843 844 844 845 845 845 845 846 846 846 846 847 847
785 792 802 797 788 788 788 789 789 789 789 789 789 785 783 783 781 780 784 788 785 788 790 789 793 792 790 788 789 792 794 796 798 799 802 803 805 806 807 809 810 811 813 814 816 817 819 820 822 823 824 824 826 828 830 830 831 832 831 830 831 831 832 833 834 834 835 835 836 836 837 837 838 838 839 839 839 840 840 841 841 841 842 842 843 844 844 844 845 845 846 846 846 847 847 847 848
785 789 795 790 785 788 788 788 788 787 786 788 788 785 784 781 780 783 784 789 791 788 785 785 789 790 790 790 789 792 794 795 797 799 801 803 805 806 807 808 810 811 813 814 816 817 818 820 822 823 825 826 827 829 830 830 830 830 830 830 831 832 832 833 834 834 835 835 836 837 837 837 838 838 839 839 840 840 840 841 841 842 842 843 843 844 844 845 845 845 846 846 846 847 847 847 848
784 786 786 786 786 789 789 787 788 786 786 787 787 787 786 781 782 784 784 790 791 785 781 780 783 784 785 788 789 792 794 795 796 798 800 802 804 805 807 808 810 812 813 814 815 817 818 820 821 823 824 825 826 827 828 829 828 829 829 830 831 832 833 833 834 834 835 836 836 837 837 838 838 838 839 839 840 840 841 841 841 842 842 843 844 844 844 845 845 846 846 846 847 847 847 847 848
784 786 783 786 786 788 790 787 788 787 788 789 787 786 785 784 785 784 784 787 784 778 777 778 781 782 783 786 789 791 794 795 795 796 798 801 802 804 806 807 809 811 812 813 815 817 818 820 821 822 824 825 825 826 826 827 828 828 829 830 831 832 833 833 834 834 835 836 836 837 837 838 838 838 839 839 840 841 841 842 842 843 843 844 844 844 845 845 845 846 846 846 847 847 847 847 848
783 788 785 787 786 788 789 787 788 787 789 789 785 786 788 788 787 785 784 783 778 774 774 777 781 783 784 787 789 791 792 794 794 795 797 799 801 803 805 807 808 810 811 813 814 816 817 819 820 822 823 824 825 825 826 826 827 828 829 830 830 831 833 833 834 834 835 836 836 837 837 837 838 838 839 840 840 841 841 842 842 843 843 844 844 844 845 845 845 846 846 846 846 847 847 847 847
783 787 786 786 787 789 788 787 789 788 789 788 786 790 792 790 787 786 785 781 777 774 775 777 781 784 786 788 789 791 792 794 795 796 797 799 801 803 805 807 808 809 810 812 813 815 816 818 819 821 822 823 824 825 825 826 827 828 828 829 830 831 832 833 834 834 835 835 836 836 837 837 838 838 839 840 840 841 841 842 842 843 844 844 845 845 845 845 845 846 846 846 846 846 846 846 847
782 785 787 787 790 790 789 790 790 790 790 789 791 793 792 787 786 788 785 781 778 775 777 780 782 786 788 789 790 791 792 794 794 795 797 799 801 803 804 806 807 808 809 811 812 813 815 817 818 820 821 822 823 824 825 825 826 827 828 829 830 831 832 833 834 834 835 835 836 836 837 837 838 838 839 840 840 841 841 842 843 843 844 844 845 845 845 845 845 846 846 846 846 846 846 846 846
780 784 788 789 792 791 790 792 792 792 790 790 794 796 792 787 789 793 786 780 779 779 782 783 784 788 788 790 790 790 792 793 794 795 797 799 800 801 803 805 806 807 809 810 811 812 814 816 817 819 820 822 822 823 824 825 826 826 827 828 829 830 831 832 833 834 835 835 836 836 837 837 838 838 839 840 840 841 841 842 843 843 844 844 845 845 845 845 845 846 845 845 845 845 845 845 845
780 784 789 792 792 792 792 793 793 793 793 791 792 795 793 790 792 793 786 782 781 782 786 786 786 788 788 790 790 790 792 793 794 795 795 796 797 799 801 803 804 806 808 809 810 811 813 815 816 818 819 821 822 823 823 824 825 826 827 828 829 830 831 832 833 834 835 835 836 836 837 837 838 838 839 840 840 841 841 842 843 843 844 844 845 845 845 846 845 846 845 845 845 845 845 845 845
782 783 791 797 795 795 794 794 794 793 795 790 790 799 799 796 795 789 785 784 783 785 788 788 788 789 788 789 790 791 791 793 794 794 794 794 796 798 800 801 804 806 807 808 810 811 812 813 815 817 819 820 821 822 823 823 824 825 826 827 828 830 830 831 833 834 835 835 836 836 836 837 838 839 839 840 840 841 842 842 843 843 844 844 845 845 845 846 846 846 845 845 845 845 845 845 845
785 787 793 801 802 801 795 794 796 794 795 789 792 810 809 798 793 788 786 786 787 790 790 789 789 789 789 789 790 791 790 792 792 792 793 794 796 797 798 801 804 807 809 810 811 810 811 813 814 816 817 819 820 821 822 823 824 825 826 827 828 829 830 831 832 834 835 835 835 836 836 837 838 839 839 840 841 841 842 842 843 843 844 844 845 845 846 846 846 846 845 845 845 845 845 845 845
790 794 796 804 809 805 797 796 798 798 797 789 795 816 812 797 793 790 789 788 789 792 791 789 789 789 789 788 789 790 789 790 790 791 792 793 795 796 798 802 804 806 809 811 812 811 811 812 813 814 816 817 819 820 821 822 823 824 825 826 827 829 830 831 832 833 834 835 835 836 836 837 838 839 840 841 841 841 842 842 843 844 844 844 845 845 846 846 846 846 845 845 845 845 844 844 844
793 801 806 810 810 807 801 797 796 799 799 791 799 816 812 798 794 792 790 789 789 792 791 789 789 788 789 788 788 789 788 788 789 790 791 792 793 795 798 800 802 802 803 806 810 812 812 812 812 813 814 816 817 819 820 821 822 824 825 826 827 828 829 830 832 833 834 834 835 835 836 837 838 839 840 841 841 841 842 842 843 844 844 844 845 845 846 846 846 846 845 845 845 844 844 844 844
799 804 811 810 808 808 804 798 794 795 799 798 801 812 811 800 793 791 789 789 790 791 791 789 788 788 788 788 788 788 788 788 788 789 790 791 792 794 796 798 799 801 802 803 806 809 811 812 812 812 813 815 816 818 819 820 822 823 824 825 827 828 829 830 831 832 833 834 834 835 836 837 838 839 840 841 841 841 842 842 843 844 844 845 845 845 846 846 846 846 845 845 844 844 844 844 843
806 808 811 808 806 806 804 801 796 792 798 802 804 807 807 801 794 791 789 788 790 791 790 789 787 787 788 788 788 787 788 789 788 787 788 789 791 792 794 796 797 799 801 802 803 806 808 811 812 811 813 814 815 816 818 820 821 823 824 825 826 827 828 829 830 831 832 833 834 835 836 836 837 838 840 841 841 841 842 842 843 844 844 845 845 845 846 846 845 845 845 844 844 844 844 844 843
802 807 809 807 805 804 803 801 796 793 797 803 808 810 805 800 795 792 790 789 790 790 789 789 787 787 787 787 787 787 787 788 785 785 787 788 789 791 793 795 796 798 800 801 803 804 806 809 811 811 812 813 814 816 817 819 820 822 823 824 825 826 827 828 828 829 831 832 833 834 835 836 837 838 839 840 841 841 842 842 843 844 844 845 845 845 845 846 845 845 845 844 844 844 844 844 843
793 796 800 802 802 802 800 795 792 792 798 804 808 808 802 798 795 792 790 789 790 790 789 789 788 787 787 786 787 786 787 786 784 784 786 787 789 790 792 794 795 797 799 801 802 804 804 807 809 811 811 812 814 815 817 818 819 821 822 823 824 824 825 827 827 828 830 831 832 833 834 835 836 837 839 840 840 841 841 842 843 843 844 844 845 845 845 845 845 845 844 844 844 844 844 843 843
788 792 795 797 799 800 795 793 791 789 797 804 803 803 800 796 794 791 789 789 791 791 790 790 789 788 787 786 786 786 786 785 784 785 786 787 789 790 792 793 795 796 797 800 801 802 803 804 807 809 810 811 812 813 815 816 817 819 820 821 822 823 824 825 826 827 828 830 831 832 833 834 835 836 838 839 840 840 841 841 842 843 843 844 845 845 845 845 845 845 844 844 844 844 844 843 843
787 791 794 796 798 798 793 792 791 787 795 801 799 802 801 795 792 790 789 790 791 790 790 790 789 789 787 787 786 786 786 785 785 785 785 787 788 789 791 792 794 795 796 798 800 801 802 803 806 807 808 809 810 812 813 814 815 817 818 819 820 821 823 824 825 826 827 829 830 831 832 833 834 836 837 838 839 839 840 841 842 842 843 844 844 844 845 845 845 845 844 844 844 844 844 843 843
788 791 794 796 794 794 794 793 792 789 794 799 798 802 800 793 791 789 789 789 788 786 786 787 788 789 789 787 787 786 786 786 786 785 785 786 787 788 791 792 793 794 795 797 799 801 802 803 805 806 806 807 809 810 811 812 814 816 817 818 820 821 822 823 824 825 827 828 829 830 831 832 833 834 836 837 838 839 839 840 841 842 843 843 844 844 844 845 845 844 844 844 844 844 843 843 842
788 791 793 794 790 791 795 797 796 791 793 796 797 801 799 793 791 789 788 786 784 783 783 785 785 786 787 785 785 785 786 787 787 786 785 785 786 787 788 790 791 793 795 796 798 799 801 802 803 804 805 806 807 808 810 812 813 815 817 818 819 820 821 822 823 824 825 826 827 828 829 830 832 833 834 835 837 838 838 839 840 841 842 843 843 844 844 844 844 844 844 844 844 844 843 842 841
787 788 789 787 785 787 789 794 797 794 794 793 796 805 800 794 795 791 788 787 785 784 784 785 785 784 784 784 784 784 784 784 785 785 785 784 786 786 787 789 791 792 793 794 796 797 798 800 801 802 803 804 806 807 809 811 813 814 816 817 819 820 821 821 822 822 823 824 825 827 828 829 830 831 833 834 835 837 838 839 839 840 841 842 843 843 844 844 844 844 844 844 844 844 843 842 841
788 782 778 776 778 783 788 794 797 804 807 794 795 812 807 795 796 793 789 790 789 786 785 786 785 784 785 786 785 784 783 782 783 783 783 783 785 786 787 788 790 791 792 793 794 795 797 798 799 801 802 803 805 806 808 810 811 813 814 815 817 818 819 819 819 820 821 822 823 825 826 827 829 830 831 833 834 835 836 837 838 839 840 841 842 842 843 844 844 844 844 844 844 843 842 841 840
791 775 766 770 776 782 789 793 795 807 811 796 794 812 813 799 793 792 790 791 791 788 787 785 785 785 785 785 784 783 783 782 782 782 782 783 784 785 786 787 788 789 791 792 793 794 796 797 798 799 800 802 803 805 807 808 810 811 812 813 814 816 817 817 818 819 820 821 822 823 825 826 827 829 830 832 833 834 835 836 837 838 839 840 841 842 842 843 843 843 844 843 843 842 842 841 840
786 768 762 770 776 781 789 792 795 801 803 801 797 802 813 807 795 794 793 792 793 790 788 785 784 785 784 784 783 782 782 780 781 781 781 783 783 784 785 785 787 788 790 791 792 793 794 795 796 797 799 800 802 804 805 806 807 809 810 811 813 814 815 816 817 818 819 820 821 822 823 825 826 827 829 830 831 832 833 834 835 836 837 839 840 841 841 842 842 842 843 843 842 842 841 840 840
776 767 766 770 775 782 788 791 796 799 800 811 808 801 814 813 797 796 796 795 796 791 787 785 782 782 781 781 781 780 780 779 779 780 780 781 782 782 783 784 787 788 790 791 791 792 792 793 794 796 798 799 801 802 803 805 806 807 808 809 811 813 814 815 816 817 818 819 819 820 822 823 824 826 827 829 830 831 832 833 834 835 836 837 838 839 840 840 841 841 841 841 841 840 840 839 839
769 768 770 773 779 783 788 792 794 799 804 813 812 805 815 813 797 799 802 797 795 789 786 784 780 780 779 778 779 778 779 778 778 778 778 780 781 782 783 785 786 788 789 790 790 791 791 792 793 794 797 798 800 802 802 803 804 805 807 808 810 811 812 814 815 816 817 818 818 819 820 822 823 824 826 827 828 829 830 831 832 833 834 836 837 838 838 839 839 840 840 840 840 839 839 839 838
765 769 774 780 785 783 788 792 791 805 814 810 809 805 811 813 798 795 797 790 786 785 784 783 780 780 778 778 778 778 778 778 777 778 778 779 781 782 783 784 786 787 789 790 790 791 790 791 792 793 797 799 801 803 803 802 803 804 805 807 808 810 811 813 814 815 815 816 817 818 819 820 822 823 824 826 827 828 829 830 831 832 833 834 835 836 837 838 838 839 839 839 839 838 838 838 837
762 771 778 786 795 794 797 800 799 817 823 809 806 805 810 817 800 787 786 779 779 781 779 779 780 780 778 777 778 777 777 777 777 778 778 779 780 781 783 783 785 786 787 789 790 791 791 790 791 793 798 801 802 804 805 802 802 802 803 805 807 808 810 811 812 813 814 815 815 816 818 819 820 822 823 824 825 826 828 829 830 831 832 832 833 834 835 836 837 837 837 837 837 837 837 837 837
767 775 780 792 812 816 816 821 820 824 819 807 806 806 811 812 791 781 782 775 774 776 773 774 776 777 777 776 777 777 777 777 778 779 779 779 780 781 782 782 784 785 786 786 787 789 790 790 791 792 796 801 802 804 805 802 800 801 802 803 805 807 808 810 811 812 813 813 814 815 816 818 819 820 821 822 824 825 826 827 829 829 830 831 832 833 834 835 835 835 836 836 836 836 836 836 835
771 775 777 790 815 827 831 837 833 823 814 807 804 806 810 803 785 781 781 773 772 772 771 772 772 773 774 775 777 777 777 777 778 779 779 779 780 780 781 782 783 784 785 786 786 787 788 789 790 791 794 798 800 802 805 803 800 799 800 801 803 805 806 808 809 810 811 812 813 814 815 816 817 819 820 821 823 824 825 826 827 828 829 830 830 831 832 833 833 833 834 834 834 834 835 834 834
769 768 770 778 791 804 816 823 821 818 818 813 808 809 810 801 785 779 776 772 772 770 770 772 771 772 773 775 778 777 778 778 778 779 779 779 780 781 782 783 782 783 784 785 785 786 787 788 789 789 791 794 796 799 801 801 799 798 799 800 801 803 804 806 807 808 809 810 811 812 813 814 815 817 818 820 821 823 824 825 826 826 827 828 829 830 831 831 832 832 832 832 832 833 833 833 833
769 766 768 772 769 776 797 809 807 810 818 819 814 808 802 792 780 774 773 773 772 772 771 772 772 773 774 777 778 778 778 778 778 779 779 778 779 781 782 783 783 783 783 784 785 785 786 787 788 788 790 792 793 795 797 797 797 796 797 798 800 801 803 804 805 806 807 808 810 810 811 812 813 815 817 818 820 821 822 823 824 825 825 826 827 828 829 829 830 830 830 830 830 831 831 831 831
767 768 768 767 760 765 791 810 809 808 814 818 816 807 796 789 781 774 775 775 774 775 773 772 774 774 776 778 778 778 778 778 778 778 778 778 779 780 782 783 784 783 784 784 784 785 786 786 787 788 789 790 791 792 793 793 794 794 795 796 798 800 801 802 803 804 805 806 808 809 810 810 811 813 814 816 817 819 820 821 822 823 824 824 825 826 827 828 828 828 828 828 828 829 829 829 829
759 766 761 760 763 765 779 803 814 817 819 817 816 812 805 801 793 781 779 779 777 777 775 775 777 776 777 778 778 778 777 777 777 777 778 778 778 780 781 782 783 784 784 784 784 785 785 786 787 787 788 788 789 789 790 791 792 793 794 795 797 798 800 801 802 803 804 805 806 807 808 809 809 811 812 813 815 816 818 819 820 821 822 822 823 824 825 826 826 826 826 827 827 828 828 827 827
746 752 750 756 770 775 779 796 810 818 827 824 818 818 811 802 795 785 781 781 777 778 778 777 777 777 777 777 777 777 777 777 777 777 778 778 778 780 780 781 782 783 784 784 784 785 784 785 786 787 788 787 787 787 788 790 791 792 793 794 795 797 798 800 801 802 803 803 804 805 806 808 808 809 810 811 813 814 815 817 817 819 820 820 821 822 823 824 824 824 825 825 826 826 826 826 826
744 747 750 754 765 773 777 788 794 802 823 828 819 817 805 787 781 776 775 777 774 776 778 776 776 776 775 775 775 776 777 777 777 777 777 777 778 780 780 781 782 782 784 784 784 785 784 785 786 787 787 786 786 787 787 789 790 791 792 793 794 796 796 798 799 800 801 801 802 803 804 806 807 808 809 809 810 812 813 814 815 816 817 818 819 820 821 822 822 822 823 823 824 824 825 824 824
752 756 760 761 766 773 775 785 790 792 809 820 818 813 791 769 768 766 765 770 770 771 774 775 775 774 774 774 774 775 776 776 777 777 777 777 778 779 780 781 782 782 783 783 784 784 784 785 786 786 786 786 786 787 787 788 789 790 791 792 793 794 795 796 797 798 799 799 800 801 802 804 805 806 807 807 808 809 810 812 813 814 815 816 817 818 819 819 820 820 821 821 822 822 823 823 823
746 751 757 760 765 772 780 794 798 792 798 806 809 805 781 761 763 761 759 764 766 767 770 772 774 773 774 774 773 774 774 775 777 776 777 778 777 779 780 780 781 782 782 783 783 784 784 785 785 785 785 785 786 787 787 788 788 789 790 790 791 793 793 794 795 796 796 797 798 799 800 802 803 804 805 805 806 807 808 809 810 811 812 813 814 815 816 817 818 818 819 820 820 820 820 821 821